Hourly Data Report for October 14, 2021

TORONTO CITY
ONTARIO
Current Station Operator: ECCC - MSC

43°40'00.000" N
79°24'00.000" W
112.50 m
6158355
71508
XTO

Download Data

Hourly Data (October 2021)
Hourly Data Report for October 14, 2021
TIME
LST
Temp Definition
°C
Dew Point Definition
°C
Rel Hum Definition
%
Precip. Amount Definition
mm

Wind Dir Definition
10's deg

Wind Spd Definition
km/h
Visibility Definition
km
Stn Press Definition
kPa
Hmdx Definition


Wind Chill Definition


Weather Definition


00:00 16.5 14.2 86 0.0       100.09     LegendNANA
01:00 16.0 14.4 90 0.0       100.11     LegendNANA
02:00 15.7 14.5 92 0.0       100.16     LegendNANA
03:00 15.2 14.1 93 0.0       100.18     LegendNANA
04:00 15.0 13.9 93 0.0       100.16     LegendNANA
05:00 15.4 14.2 92 0.0       100.16     LegendNANA
06:00 15.1 14.1 94 0.0       100.18     LegendNANA
07:00 15.7 14.3 91 0.0       100.16     LegendNANA
08:00 17.4 14.6 84 0.0       100.19     LegendNANA
09:00 18.3 15.7 85 0.0       100.19     LegendNANA
10:00 19.8 15.3 75 0.0       100.19     LegendNANA
11:00 20.4 15.8 75 0.0       100.14 25   LegendNANA
12:00 20.4 15.4 73 0.0       100.12 25   LegendNANA
13:00 20.7 15.3 71 0.0       100.01 25   LegendNANA
14:00 20.7 16.2 76 0.0       99.99 25   LegendNANA
15:00 21.2 16.1 73 0.0       99.90 26   LegendNANA
16:00 20.6 15.4 72 0.0       99.89 25   LegendNANA
17:00 19.2 15.4 78 0.0       99.87     LegendNANA
18:00 19.1 15.8 81 0.0       99.85     LegendNANA
19:00 18.9 16.3 85 0.0       99.84     LegendNANA
20:00 18.8 16.6 87 0.0       99.82     LegendNANA
21:00 19.0 16.9 88 0.0       99.81     LegendNANA
22:00 19.1 17.3 89 0.0       99.77     LegendNANA
23:00 18.8 17.6 93 0.3       99.76     LegendNANA

Notes on Data Quality.

Legend

  • E = Estimated
  • M = Missing
  • NA = Not Available*
  • [empty] = Indicates an unobserved value
Date modified: